, FL

(GMT )
Crestview

Weather History for KEGI - November, 2012

Change the Weather History Date:

Thursday, November 8, 2012

  Actual Average Record
Temperature  
Mean Temperature 50 °F -  
Max Temperature 64 °F - - ()
Min Temperature 37 °F - - ()
Degree Days  
Heating Degree Days 14    
Moisture  
Dew Point 38 °F    
Average Humidity 72    
Maximum Humidity 95    
Minimum Humidity 38    
Precipitation  
Precipitation 0.00 in - - ()
Sea Level Pressure  
Sea Level Pressure 30.19 in    
Wind  
Wind Speed 4 mph (NNW)    
Max Wind Speed 12 mph    
Max Gust Speed -    
Visibility 10 miles    
Events      
Averages and records for this station are not official NWS values.
T = Trace of Precipitation, MM = Missing Value Source: NWS Daily Summary

Daily Weather History Graph

Daily Weather History Graph

Search for Another Location

Airport or City:

Trip Planner

Search our weather history database for the weather conditions in past years. The results will help you decide how hot, cold, wet, or windy it might be!

Date:

Astronomy

Nov. 08, 2012 Rise Set
Actual Time 6:06 AM CST 4:52 PM CST
Civil Twilight 5:41 AM CST 5:17 PM CST
Nautical Twilight 5:12 AM CST 5:46 PM CST
Astronomical Twilight 4:44 AM CST 6:14 PM CST
Moon 12:25 AM CST (11/8) 1:12 PM CST (11/8)
Length of Visible Light 11h 36m
Length of Day
10h 45m
Waning Crescent, 32% of the Moon is Illuminated
Nov 8
Waning Crescent
Nov 13
New
Nov 20
First Quarter
Nov 28
Full
Dec 6
Last Quarter

Hourly Weather History & Observations

Time (CST) Temp. Windchill Dew Point Humidity Pressure Visibility Wind Dir Wind Speed Gust Speed Precip Events Conditions
12:55 AM 43.2 °F 41.5 °F 36.0 °F 76% 30.12 in 10.0 mi NW 3.5 mph - N/A   Clear
1:55 AM 41.2 °F 38.2 °F 35.8 °F 81% 30.12 in 10.0 mi NW 4.6 mph - N/A   Clear
2:55 AM 37.9 °F 33.5 °F 34.7 °F 88% 30.14 in 10.0 mi NNW 5.8 mph - N/A   Clear
3:55 AM 37.6 °F 32.3 °F 35.1 °F 91% 30.15 in 10.0 mi North 6.9 mph - N/A   Clear
4:55 AM 38.5 °F 36.1 °F 36.1 °F 91% 30.16 in 10.0 mi North 3.5 mph - N/A   Clear
5:55 AM 38.5 °F 36.1 °F 36.1 °F 91% 30.18 in 10.0 mi NNW 3.5 mph - N/A   Clear
6:55 AM 39.0 °F - 37.8 °F 95% 30.20 in 10.0 mi Calm Calm - N/A   Clear
7:55 AM 44.8 °F 41.6 °F 39.9 °F 83% 30.23 in 10.0 mi NNW 5.8 mph - N/A   Clear
8:55 AM 51.1 °F - 40.6 °F 67% 30.24 in 10.0 mi NNW 5.8 mph - N/A   Clear
9:55 AM 55.6 °F - 39.9 °F 56% 30.24 in 10.0 mi NNE 6.9 mph - N/A   Clear
10:55 AM 59.5 °F - 38.7 °F 46% 30.22 in 10.0 mi North 10.4 mph - N/A   Clear
11:59 AM 61.5 °F - 37.2 °F 41% 30.20 in 10.0 mi Variable 5.8 mph - N/A   Clear
12:55 PM 63.3 °F - 37.2 °F 38% 30.17 in 10.0 mi NNW 11.5 mph - N/A   Clear
1:55 PM 64.0 °F - 38.3 °F 39% 30.16 in 10.0 mi NE 4.6 mph - N/A   Clear
2:55 PM 64.6 °F - 38.1 °F 38% 30.16 in 10.0 mi North 5.8 mph - N/A   Clear
3:55 PM 63.3 °F - 38.1 °F 39% 30.16 in 10.0 mi North 5.8 mph - N/A   Clear
4:55 PM 57.9 °F - 42.6 °F 57% 30.16 in 10.0 mi Calm Calm - N/A   Partly Cloudy
5:55 PM 50.2 °F - 42.4 °F 75% 30.19 in 10.0 mi Calm Calm - N/A   Clear
6:55 PM 45.9 °F - 40.8 °F 83% 30.20 in 10.0 mi Calm Calm - N/A   Clear
7:55 PM 44.1 °F - 40.8 °F 88% 30.22 in 10.0 mi Calm Calm - N/A   Clear
8:55 PM 41.4 °F - 38.8 °F 91% 30.22 in 10.0 mi Calm Calm - N/A   Clear
9:55 PM 41.9 °F - 39.7 °F 92% 30.22 in 10.0 mi Calm Calm - N/A   Clear
10:55 PM 39.0 °F - 37.2 °F 93% 30.22 in 10.0 mi Calm Calm - N/A   Clear
11:55 PM 37.2 °F - 35.4 °F 93% 30.22 in 10.0 mi Calm Calm - N/A   Clear